Location: Unspecified
(0.0000°N, 0.0000°E)
Time: 17:56:30
(UTC+00:00)

STARLINK 1015 - Pass Details

Date: 18 January 2020
Orbit: 348 x 352 km, 53.0° (Epoch: 18 January)

Event Time Altitude Azimuth Distance (km) Brightness Sun altitude
Exits shadow 04:15:31 - 177° (S) 1,883 6.7 -26.7°
Reaches altitude 10° 04:17:46 10° 147° (SSE) 1,303 6.2 -26.2°
Maximum altitude 04:18:52 12° 125° (SE) 1,215 6.3 -25.9°
Drops below altitude 10° 04:19:57 10° 103° (ESE) 1,300 6.5 -25.6°
Sets 04:22:58 0° 67° (ENE) 2,136 7.3 -25.0°
